K5VP Weather Reports


Display with metric or nautical units.
time (UTC)temp
F
wind
direction
speed
MPH
gust
MPH
rain 1hr
in
rain 24hr
in
rain mn
in
humidity
%
barometer
mb
20260506071059 52 248 0.0 0.0 0.04 0.33 0.04 94 1010.0
20260506070440 52 81 0.0 4.0 0.05 0.33 0.03 94 1009.4
20260506062509 54 117 0.0 4.0 0.00 0.31 0.01 93 1009.4
20260506061900 54 19 0.0 4.0 0.00 0.31 0.01 93 1009.1
20260506061224 55 57 0.0 8.0 0.00 0.31 0.01 93 1009.1
20260506060548 55 64 1.0 8.0 0.00 0.31 0.01 93 1008.7
20260506051410 65 41 0.0 4.0 0.00 0.29 0.00 95 1008.6
20260506050750 65 200 0.0 9.0 0.00 0.29 0.00 95 1008.5
20260506050131 65 285 0.0 3.0 0.04 0.29 0.00 95 1008.4
20260506044835 65 314 0.0 0.0 0.41 0.29 0.29 95 1007.9
20260506044218 65 19 0.0 0.0 0.92 0.23 0.24 95 1008.1
20260506043553 65 195 0.0 0.0 0.41 0.18 0.19 95 1007.8
20260506042917 65 187 0.0 0.0 0.00 0.16 0.16 95 1007.5
20260506042243 65 199 0.0 0.0 0.00 0.16 0.16 95 1007.4
20260506041622 64 195 0.0 0.0 0.00 0.16 0.16 95 1007.4
20260506041000 64 194 0.0 0.0 0.00 0.16 0.16 95 1007.5
20260506040345 64 197 0.0 0.0 0.00 0.16 0.16 95 1007.5
20260506035729 64 167 0.0 2.0 0.00 0.16 0.16 95 1007.6
20260506035116 64 193 0.0 0.0 0.00 0.16 0.16 95 1007.5
20260506034450 64 195 0.0 0.0 0.00 0.16 0.16 95 1007.5
20260506033833 64 195 0.0 0.0 0.00 0.16 0.16 95 1007.7
20260506033222 64 195 0.0 0.0 0.00 0.16 0.16 95 1007.7
20260506032548 64 195 0.0 0.0 0.00 0.16 0.16 95 1007.8
20260506031935 64 162 0.0 0.0 0.00 0.16 0.16 95 1007.8
20260506031322 63 200 0.0 1.0 0.00 0.16 0.16 95 1007.7
20260506030703 63 191 0.0 0.0 0.00 0.16 0.16 95 1007.6
20260506030027 63 198 0.0 0.0 0.00 0.16 0.16 95 1007.6
20260506025359 63 196 0.0 0.0 0.00 0.16 0.16 95 1007.7
20260506024750 63 198 0.0 0.0 0.00 0.16 0.16 95 1007.8
20260506024124 63 192 0.0 0.0 0.00 0.14 0.14 95 1007.9
20260506023505 63 191 0.0 0.0 0.00 0.14 0.14 95 1007.7
20260506022830 63 190 0.0 0.0 0.00 0.14 0.14 95 1007.8
20260506022155 63 184 0.0 0.0 0.00 0.14 0.14 95 1007.8
20260506021519 63 184 0.0 0.0 0.00 0.14 0.14 95 1007.8
20260506020857 63 184 0.0 0.0 0.00 0.14 0.14 95 1007.7
20260506020237 63 184 0.0 0.0 0.00 0.14 0.14 95 1007.5
20260506015622 63 184 0.0 0.0 0.00 0.14 0.14 95 1007.5
20260506015001 63 184 0.0 0.0 0.00 0.14 0.14 95 1007.6
20260506014340 63 184 0.0 0.0 0.00 0.14 0.14 95 1007.9
20260506013715 63 184 0.0 0.0 0.00 0.14 0.14 95 1007.8
20260506013049 63 184 0.0 0.0 0.00 0.14 0.14 95 1007.5
20260506012441 63 184 0.0 0.0 0.00 0.14 0.14 95 1007.7
20260506011807 63 179 0.0 0.0 0.00 0.14 0.14 95 1007.7
20260506011144 63 179 0.0 0.0 0.00 0.14 0.14 95 1007.9
20260506010525 63 179 0.0 0.0 0.00 0.14 0.14 95 1007.8
20260506005914 63 179 0.0 0.0 0.00 0.14 0.14 95 1007.9
20260506005306 63 179 0.0 0.0 0.00 0.14 0.14 95 1007.9
20260506004638 63 179 0.0 0.0 0.00 0.14 0.14 95 1008.0
20260506004000 63 179 0.0 0.0 0.00 0.14 0.14 95 1008.1
20260506003336 63 179 0.0 0.0 0.00 0.14 0.14 95 1008.1
20260506002710 63 179 0.0 0.0 0.00 0.14 0.14 95 1008.1
20260506002037 63 179 0.0 0.0 0.00 0.14 0.14 95 1008.2
20260506001405 63 179 0.0 0.0 0.00 0.14 0.14 95 1008.4
20260506000727 63 179 0.0 0.0 0.00 0.14 0.14 95 1008.5
20260506000115 63 179 0.0 0.0 0.00 0.14 0.14 95 1008.4
20260505235451 63 182 0.0 0.0 0.00 0.14 0.14 94 1008.5
20260505234830 63 128 0.0 0.0 0.00 0.14 0.14 94 1008.4
20260505234205 63 123 0.0 0.0 0.00 0.14 0.14 94 1008.5
20260505233550 63 162 0.0 0.0 0.00 0.14 0.14 94 1008.5
20260505232935 63 162 0.0 0.0 0.00 0.14 0.14 94 1008.6
20260505232305 63 162 0.0 0.0 0.00 0.14 0.14 94 1008.6
20260505231643 63 162 0.0 0.0 0.00 0.14 0.14 94 1008.7
20260505231025 63 162 0.0 0.0 0.00 0.14 0.14 94 1008.6
20260505230417 63 197 0.0 0.0 0.00 0.14 0.14 94 1008.8
20260505225749 63 198 0.0 0.0 0.05 0.14 0.14 94 1008.9
20260505225112 63 202 0.0 0.0 0.10 0.14 0.14 93 1008.9
20260505224443 63 191 0.0 0.0 0.05 0.13 0.13 93 1008.9
20260505223819 63 191 0.0 0.0 0.00 0.12 0.12 93 1008.9
20260505223207 63 189 0.0 0.0 0.00 0.12 0.12 93 1009.0
20260505222530 63 181 0.0 0.0 0.00 0.11 0.11 93 1008.9
20260505221912 63 184 0.0 0.0 0.00 0.11 0.11 93 1009.0
20260505221242 63 185 0.0 0.0 0.00 0.11 0.11 92 1009.0
20260505220619 63 185 0.0 0.0 0.00 0.10 0.10 92 1009.0
20260505220002 63 185 0.0 0.0 0.00 0.10 0.10 92 1008.9
20260505215344 63 185 0.0 0.0 0.00 0.10 0.10 91 1009.0
20260505214728 63 182 0.0 0.0 0.00 0.10 0.10 91 1009.1
20260505214120 63 183 0.0 0.0 0.00 0.09 0.09 90 1009.1
20260505213456 64 185 0.0 0.0 0.00 0.09 0.09 89 1009.2
20260505212835 64 186 0.0 0.0 0.00 0.09 0.09 88 1009.2
20260505212209 65 193 0.0 0.0 0.00 0.09 0.09 87 1009.3
20260505211546 65 203 0.0 0.0 0.00 0.08 0.09 85 1009.2
20260505210930 66 192 0.0 1.0 0.00 0.08 0.08 82 1009.2
20260505210257 68 142 0.0 0.0 0.00 0.08 0.08 79 1009.1
20260505205639 69 150 0.0 0.0 0.00 0.08 0.08 78 1008.9
20260505205029 69 207 0.0 2.0 0.00 0.08 0.08 75 1008.9
20260505204406 70 212 0.0 0.0 0.00 0.08 0.08 74 1008.8
20260505203757 71 164 0.0 5.0 0.00 0.08 0.08 72 1008.8
20260505203122 72 207 0.0 5.0 0.00 0.08 0.08 72 1008.9
20260505202510 72 167 0.0 3.0 0.00 0.08 0.08 71 1008.8
20260505202009 72 149 0.0 5.0 0.00 0.08 0.08 72 1008.9
20260505201504 71 150 1.0 5.0 0.00 0.08 0.08 74 1008.9
20260505201004 71 34 1.0 5.0 0.00 0.08 0.08 74 1009.0
20260505200449 72 195 0.0 5.0 0.00 0.08 0.08 73 1009.1
20260505195925 71 195 0.0 1.0 0.00 0.08 0.08 77 1009.1
20260505195405 71 152 0.0 3.0 0.00 0.08 0.08 75 1009.1
20260505194901 71 150 0.0 3.0 0.00 0.08 0.08 76 1009.2
20260505194348 71 198 0.0 3.0 0.00 0.08 0.08 75 1009.3
20260505193851 72 155 0.0 3.0 0.00 0.08 0.08 76 1009.2
20260505193348 72 155 0.0 3.0 0.00 0.08 0.08 76 1009.2
20260505192848 71 162 0.0 3.0 0.00 0.08 0.08 78 1009.1
20260505192334 71 151 0.0 3.0 0.00 0.08 0.08 79 1009.3
20260505191837 70 122 0.0 3.0 0.00 0.08 0.08 80 1009.5
20260505191324 69 264 0.0 3.0 0.00 0.08 0.08 81 1009.6
20260505190824 69 208 0.0 1.0 0.00 0.08 0.08 82 1009.7
20260505190310 68 158 0.0 1.0 0.00 0.08 0.08 81 1010.0
20260505185254 68 161 0.0 1.0 0.00 0.08 0.08 82 1010.3
20260505184741 68 170 0.0 3.0 0.00 0.08 0.08 81 1010.3
20260505184222 69 134 0.0 3.0 0.00 0.08 0.08 79 1010.4
20260505183727 69 153 0.0 1.0 0.00 0.08 0.08 81 1010.3
20260505183227 68 155 0.0 1.0 0.00 0.08 0.08 83 1010.5
20260505182729 67 200 0.0 1.0 0.00 0.08 0.08 85 1010.6
20260505182236 66 152 0.0 1.0 0.00 0.08 0.08 86 1010.5
20260505181725 65 199 0.0 0.0 0.00 0.08 0.08 87 1010.9
20260505181223 65 195 0.0 0.0 0.00 0.08 0.08 86 1010.9
20260505180720 65 179 0.0 0.0 0.00 0.08 0.08 86 1011.1
20260505180221 65 176 0.0 0.0 0.00 0.08 0.08 86 1011.1
20260505175707 65 202 0.0 0.0 0.00 0.08 0.08 85 1011.2
20260505175211 66 146 0.0 0.0 0.00 0.08 0.08 85 1011.1
20260505174709 66 145 0.0 0.0 0.00 0.08 0.08 85 1011.2
20260505174204 66 144 0.0 0.0 0.00 0.08 0.08 84 1011.2
20260505173658 66 187 0.0 0.0 0.00 0.08 0.08 84 1011.1
20260505173143 67 188 3.0 1.0 0.00 0.08 0.08 83 1011.1
20260505172646 66 122 2.0 71.0 0.00 0.08 0.08 84 1011.3
20260505172154 66 138 0.0 1.0 0.00 0.08 0.08 85 1011.3
20260505171642 66 200 0.0 7.0 0.00 0.08 0.08 87 1011.2
20260505171125 66 144 0.0 0.0 0.00 0.08 0.08 88 1011.3
20260505170609 65 205 0.0 0.0 0.00 0.08 0.08 88 1011.1
20260505165552 64 186 0.0 0.0 0.00 0.08 0.08 91 1011.1
20260505165047 63 186 0.0 0.0 0.00 0.08 0.08 91 1011.2
20260505164536 62 201 0.0 1.0 0.00 0.08 0.08 92 1011.3
20260505164018 62 139 0.0 0.0 0.00 0.08 0.08 92 1011.3
20260505163516 61 200 0.0 0.0 0.00 0.08 0.08 92 1011.3
20260505163010 61 211 0.0 0.0 0.00 0.08 0.08 92 1011.3
20260505162503 61 210 0.0 0.0 0.00 0.08 0.08 92 1011.2
20260505161956 61 197 0.0 0.0 0.00 0.08 0.08 93 1011.1
20260505161500 60 196 0.0 0.0 0.00 0.08 0.08 93 1011.0
20260505160948 60 162 0.0 1.0 0.00 0.08 0.08 92 1010.9
20260505160426 60 205 0.0 1.0 0.00 0.08 0.08 93 1011.0
20260505153208 59 145 0.0 0.0 0.08 0.08 0.08 92 1010.9
20260505152712 59 191 0.0 0.0 0.07 0.07 0.07 92 1011.2
20260505152218 59 191 0.0 0.0 0.07 0.06 0.07 92 1011.3
20260505151655 59 191 0.0 0.0 0.05 0.06 0.06 92 1011.7
20260505151144 59 191 0.0 0.0 0.05 0.05 0.05 91 1011.9
20260505150639 59 191 0.0 0.0 0.08 0.05 0.05 91 1011.9
20260505150121 59 191 0.0 0.0 0.08 0.04 0.05 90 1012.0
20260505140453 61 185 0.0 0.0 0.00 0.00 0.00 81 1011.8
20260505124755 59 200 0.0 0.0 0.00 0.00 0.00 81 1011.4
20260505124244 59 191 0.0 0.0 0.00 0.00 0.00 82 1011.4
20260505123737 59 191 0.0 0.0 0.00 0.00 0.00 82 1011.3
20260505123235 59 191 0.0 0.0 0.00 0.00 0.00 82 1011.1
20260505122731 59 191 0.0 0.0 0.00 0.00 0.00 82 1011.1
20260505122221 59 191 0.0 0.0 0.00 0.00 0.00 82 1011.1
20260505121703 58 191 0.0 0.0 0.00 0.00 0.00 82 1011.0
20260505121157 58 191 0.0 0.0 0.00 0.00 0.00 82 1010.9
20260505120644 58 190 0.0 0.0 0.00 0.00 0.00 82 1010.9
20260505120143 58 190 0.0 0.0 0.00 0.00 0.00 83 1010.9
20260505115631 58 189 0.0 0.0 0.00 0.00 0.00 82 1010.7
20260505115123 58 189 0.0 0.0 0.00 0.00 0.00 83 1010.8
20260505114619 58 189 0.0 0.0 0.00 0.00 0.00 83 1010.8
20260505114123 57 189 0.0 0.0 0.00 0.00 0.00 83 1010.8
20260505113618 57 189 0.0 0.0 0.00 0.00 0.00 84 1010.5
20260505113108 57 188 0.0 0.0 0.00 0.00 0.00 85 1010.6
20260505112546 56 189 0.0 0.0 0.00 0.00 0.00 86 1010.6
20260505112026 56 189 0.0 0.0 0.00 0.00 0.00 87 1010.6
20260505111511 56 190 0.0 0.0 0.00 0.00 0.00 86 1010.6
20260505111007 56 190 0.0 1.0 0.00 0.00 0.00 86 1010.5
20260505110503 56 190 0.0 0.0 0.00 0.00 0.00 86 1010.4
20260505101840 56 190 0.0 0.0 0.00 0.00 0.00 84 1010.5
20260505101335 56 190 0.0 0.0 0.00 0.00 0.00 84 1010.5
20260505100832 56 190 0.0 0.0 0.00 0.00 0.00 84 1010.4
20260505100315 56 190 0.0 0.0 0.00 0.00 0.00 84 1010.5
20260505095820 56 190 0.0 0.0 0.00 0.00 0.00 83 1010.5
20260505095315 56 190 0.0 0.0 0.00 0.00 0.00 83 1010.7
20260505094817 56 190 0.0 0.0 0.00 0.00 0.00 83 1010.6
20260505094305 56 190 0.0 0.0 0.00 0.00 0.00 83 1010.5
20260505093757 56 190 0.0 0.0 0.00 0.00 0.00 83 1010.5
20260505093246 56 190 0.0 0.0 0.00 0.00 0.00 83 1010.3
20260505092743 56 190 0.0 0.0 0.00 0.00 0.00 82 1010.3
20260505092225 56 190 0.0 0.0 0.00 0.00 0.00 82 1010.4
20260505091717 56 190 0.0 0.0 0.00 0.00 0.00 81 1010.5
20260505091200 57 190 0.0 0.0 0.00 0.00 0.00 81 1010.4
20260505090651 57 190 0.0 0.0 0.00 0.00 0.00 80 1010.5
20260505090157 57 190 0.0 0.0 0.00 0.00 0.00 80 1010.5
20260505085649 57 190 0.0 0.0 0.00 0.00 0.00 80 1010.4
20260505085146 58 190 0.0 0.0 0.00 0.00 0.00 79 1010.2
20260505084637 58 190 0.0 0.0 0.00 0.00 0.00 79 1010.3
20260505084132 58 190 0.0 0.0 0.00 0.00 0.00 79 1010.2
20260505083640 58 190 0.0 0.0 0.00 0.00 0.00 78 1010.1
20260505083138 58 190 0.0 0.0 0.00 0.00 0.00 78 1010.1
20260505082638 58 190 0.0 0.0 0.00 0.00 0.00 77 1010.1
20260505082137 58 190 0.0 0.0 0.00 0.00 0.00 77 1010.0
20260505081622 59 190 0.0 0.0 0.00 0.00 0.00 77 1010.0
20260505081125 59 190 0.0 0.0 0.00 0.00 0.00 76 1010.0
20260505080625 59 190 0.0 0.0 0.00 0.00 0.00 75 1009.9
20260505080115 60 190 0.0 0.0 0.00 0.00 0.00 74 1009.8
20260505075600 60 190 0.0 0.0 0.00 0.00 0.00 74 1009.9
20260505075105 60 190 0.0 0.0 0.00 0.00 0.00 72 1009.9
20260505074600 60 190 0.0 0.0 0.00 0.00 0.00 72 1009.8
20260505074105 60 190 0.0 0.0 0.00 0.00 0.00 72 1009.9
20260505073602 61 190 0.0 0.0 0.00 0.00 0.00 73 1010.0
20260505073049 61 190 0.0 0.0 0.00 0.00 0.00 72 1009.9
20260505072553 61 190 0.0 0.0 0.00 0.00 0.00 71 1009.9
20260505072052 61 123 0.0 0.0 0.00 0.00 0.00 72 1009.9
20260505071553 61 140 0.0 0.0 0.00 0.00 0.00 72 1009.9